Simultaneous Nadir Overpasses (SNOs) Predictions

Prediction of SNOs between LANDSAT-8 and NOAA-19 Satellite Orbit:

Table of predicted SNOs for the next 14.0 days since TLE Epoch: 12/21/2013
Index Date (LANDSAT-8) Time (LANDSAT-8) Lat,Lon (LANDSAT-8) SZA (LANDSAT-8 ) Date (NOAA-19) Time (NOAA-19) Lat,Lon (NOAA-19) SZA (NOAA-19 ) Distance(km) Time Diff (sec)
1 12/23/2013 04:18:48 -71.37, -66.13 85.30 12/23/2013 04:18:08 -71.36, -66.07 85.31 2.56 40
2 12/23/2013 05:08:15 71.27, 101.35 94.60 12/23/2013 05:09:09 71.26, 101.35 94.59 0.82 54
3 12/25/2013 09:03:07 -71.40,-137.17 85.32 12/25/2013 09:02:15 -71.41,-137.16 85.31 1.20 52
4 12/25/2013 09:52:34 71.29, 30.30 94.58 12/25/2013 09:53:16 71.28, 30.31 94.57 1.44 42
5 12/27/2013 13:47:27 -71.45, 151.82 85.35 12/27/2013 13:46:22 -71.46, 151.74 85.33 3.32 65
6 12/27/2013 14:36:55 71.29, -40.80 94.49 12/27/2013 14:37:23 71.31, -40.74 94.51 3.18 28
7 12/29/2013 18:31:45 -71.68, 81.11 85.23 12/29/2013 18:30:33 -71.73, 80.23 85.17 31.19 72
8 12/29/2013 19:21:16 71.36,-111.78 94.45 12/29/2013 19:21:30 71.35,-111.82 94.44 2.19 14
9 01/01/2014 00:05:40 71.35, 177.10 94.29 01/01/2014 00:05:36 71.34, 177.18 94.28 2.88 4
10 01/01/2014 00:55:16 -70.94, -15.92 86.13 01/01/2014 00:56:27 -70.93, -14.85 86.15 39.20 71
11 01/03/2014 04:50:04 71.42, 106.11 94.17 01/03/2014 04:49:43 71.40, 106.07 94.15 2.93 21




NCC Satellite Simultaneous Nadir Overpasses (SNOs) Prediction Service
